Location: Jalan Sepang
(2.8072°N, 101.8021°E)
Time: 04:53:52
(UTC+00:00)

PSLV R/B - Pass Details

Date: 15 May 2026
Orbit: 557 x 586 km, 98.0° (Epoch: 7 June)

Event Time Altitude Azimuth Distance (km) Brightness Sun altitude
Exits shadow 12:21:37 29° 121° (ESE) 1,072 4.2 -16.1°
Maximum altitude 12:23:00 39° 78° (ENE) 884 3.9 -16.4°
Drops below altitude 10° 12:26:51 10° 9° (N) 1,901 6.2 -17.3°
Sets 12:29:06 0° 1° (N) 2,799 7.2 -17.9°
